Time,TemperatureF,DewpointF,PressureIn,WindDirection,WindDirectionDegrees,WindSpeedMPH,WindSpeedGustMPH,Humidity,HourlyPrecipIn,Conditions,Clouds,dailyrainin,SolarRadiationWatts/m^2,SoftwareType,DateUTC
2013-08-12 00:00:00,58.0,57.0,-100.00,SW,225,1.0,-999.0,98,-99.99,,,-99.99,0.000000,,2013-08-12 05:00:00,
2013-08-12 00:32:00,58.0,57.0,-100.00,SW,225,1.0,-999.0,98,-99.99,,,-99.99,0.000000,,2013-08-12 05:32:00,
2013-08-12 00:43:00,58.0,57.0,-100.00,SW,225,1.0,-999.0,98,-99.99,,,-99.99,0.000000,,2013-08-12 05:43:00,
2013-08-12 00:52:00,58.0,57.0,-100.00,SW,225,1.0,-999.0,98,-99.99,,,-99.99,0.000000,,2013-08-12 05:52:00,
2013-08-12 01:00:00,59.0,58.0,-100.00,SW,225,2.0,-999.0,98,-99.99,,,-99.99,0.000000,,2013-08-12 06:00:00,
2013-08-12 01:32:00,59.0,58.0,-100.00,SW,225,2.0,-999.0,98,-99.99,,,-99.99,0.000000,,2013-08-12 06:32:00,
2013-08-12 01:42:00,59.0,58.0,-100.00,SW,225,2.0,-999.0,98,-99.99,,,-99.99,0.000000,,2013-08-12 06:42:00,
2013-08-12 01:52:00,59.0,58.0,-100.00,SW,225,2.0,-999.0,98,-99.99,,,-99.99,0.000000,,2013-08-12 06:52:00,
2013-08-12 02:00:00,58.0,57.0,-100.00,SW,225,1.0,-999.0,99,-99.99,,,-99.99,0.000000,,2013-08-12 07:00:00,
2013-08-12 02:33:00,58.0,57.0,-100.00,SW,225,1.0,-999.0,99,-99.99,,,-99.99,0.000000,,2013-08-12 07:33:00,
2013-08-12 02:43:00,58.0,57.0,-100.00,SW,225,1.0,-999.0,99,-99.99,,,-99.99,0.000000,,2013-08-12 07:43:00,
2013-08-12 02:52:00,58.0,57.0,-100.00,SW,225,1.0,-999.0,99,-99.99,,,-99.99,0.000000,,2013-08-12 07:52:00,
2013-08-12 03:00:00,59.0,59.0,-100.00,WSW,247,2.0,-999.0,99,-99.99,,,-99.99,0.000000,,2013-08-12 08:00:00,
2013-08-12 03:33:00,59.0,59.0,-100.00,WSW,247,2.0,-999.0,99,-99.99,,,-99.99,0.000000,,2013-08-12 08:33:00,
2013-08-12 03:43:00,59.0,59.0,-100.00,WSW,247,2.0,-999.0,99,-99.99,,,-99.99,0.000000,,2013-08-12 08:43:00,
2013-08-12 03:53:00,59.0,59.0,-100.00,WSW,247,2.0,-999.0,99,-99.99,,,-99.99,0.000000,,2013-08-12 08:53:00,
2013-08-12 04:00:00,56.0,56.0,-100.00,South,180,1.0,-999.0,99,-99.99,,,-99.99,0.000000,,2013-08-12 09:00:00,
2013-08-12 04:32:00,56.0,56.0,-100.00,South,180,1.0,-999.0,99,-99.99,,,-99.99,0.000000,,2013-08-12 09:32:00,
2013-08-12 04:43:00,56.0,56.0,-100.00,South,180,1.0,-999.0,99,-99.99,,,-99.99,0.000000,,2013-08-12 09:43:00,
2013-08-12 04:53:00,56.0,56.0,-100.00,South,180,1.0,-999.0,99,-99.99,,,-99.99,0.000000,,2013-08-12 09:53:00,
2013-08-12 05:00:00,57.0,57.0,-100.00,SSW,202,2.0,-999.0,100,-99.99,,,-99.99,0.000000,,2013-08-12 10:00:00,
2013-08-12 05:32:00,57.0,57.0,-100.00,SSW,202,2.0,-999.0,100,-99.99,,,-99.99,0.000000,,2013-08-12 10:32:00,
2013-08-12 05:43:00,57.0,57.0,-100.00,SSW,202,2.0,-999.0,100,-99.99,,,-99.99,0.000000,,2013-08-12 10:43:00,
2013-08-12 05:52:00,57.0,57.0,-100.00,SSW,202,2.0,-999.0,100,-99.99,,,-99.99,0.000000,,2013-08-12 10:52:00,
2013-08-12 06:00:00,56.0,56.0,-100.00,SSW,202,1.0,-999.0,100,-99.99,,,-99.99,2.320000,,2013-08-12 11:00:00,
2013-08-12 06:32:00,56.0,56.0,-100.00,SSW,202,1.0,-999.0,100,-99.99,,,-99.99,2.320000,,2013-08-12 11:32:00,
2013-08-12 06:43:00,56.0,56.0,-100.00,SSW,202,1.0,-999.0,100,-99.99,,,-99.99,2.320000,,2013-08-12 11:43:00,
2013-08-12 06:53:00,56.0,56.0,-100.00,SSW,202,1.0,-999.0,100,-99.99,,,-99.99,2.320000,,2013-08-12 11:53:00,
2013-08-12 07:00:00,58.0,58.0,-100.00,SW,225,2.0,-999.0,100,-99.99,,,-99.99,41.759998,,2013-08-12 12:00:00,
2013-08-12 07:32:00,58.0,58.0,-100.00,SW,225,2.0,-999.0,100,-99.99,,,-99.99,41.759998,,2013-08-12 12:32:00,
2013-08-12 07:43:00,58.0,58.0,-100.00,SW,225,2.0,-999.0,100,-99.99,,,-99.99,41.759998,,2013-08-12 12:43:00,
2013-08-12 07:52:00,58.0,58.0,-100.00,SW,225,2.0,-999.0,100,-99.99,,,-99.99,41.759998,,2013-08-12 12:52:00,
2013-08-12 08:00:00,62.0,62.0,-100.00,SW,225,2.0,-999.0,100,-99.99,,,-99.99,140.360001,,2013-08-12 13:00:00,
2013-08-12 08:33:00,62.0,62.0,-100.00,SW,225,2.0,-999.0,100,-99.99,,,-99.99,140.360001,,2013-08-12 13:33:00,
2013-08-12 08:43:00,62.0,62.0,-100.00,SW,225,2.0,-999.0,100,-99.99,,,-99.99,140.360001,,2013-08-12 13:43:00,
2013-08-12 08:53:00,62.0,62.0,-100.00,SW,225,2.0,-999.0,100,-99.99,,,-99.99,140.360001,,2013-08-12 13:53:00,
2013-08-12 09:00:00,65.0,65.0,-100.00,WSW,247,6.0,-999.0,98,-99.99,,,-99.99,368.880005,,2013-08-12 14:00:00,
2013-08-12 09:32:00,65.0,65.0,-100.00,WSW,247,6.0,-999.0,98,-99.99,,,-99.99,368.880005,,2013-08-12 14:32:00,
2013-08-12 09:42:00,65.0,65.0,-100.00,WSW,247,6.0,-999.0,98,-99.99,,,-99.99,368.880005,,2013-08-12 14:42:00,
2013-08-12 09:53:00,65.0,65.0,-100.00,WSW,247,6.0,-999.0,98,-99.99,,,-99.99,368.880005,,2013-08-12 14:53:00,
2013-08-12 10:00:00,69.0,64.0,-100.00,West,270,5.0,-999.0,85,-99.99,,,-99.99,554.479980,,2013-08-12 15:00:00,
2013-08-12 10:33:00,69.0,64.0,-100.00,West,270,5.0,-999.0,85,-99.99,,,-99.99,554.479980,,2013-08-12 15:33:00,
2013-08-12 10:43:00,69.0,64.0,-100.00,West,270,5.0,-999.0,85,-99.99,,,-99.99,554.479980,,2013-08-12 15:43:00,
2013-08-12 10:52:00,69.0,64.0,-100.00,West,270,5.0,-999.0,85,-99.99,,,-99.99,554.479980,,2013-08-12 15:52:00,
2013-08-12 11:00:00,71.0,64.0,-100.00,West,270,5.0,-999.0,79,-99.99,,,-99.99,501.119995,,2013-08-12 16:00:00,
2013-08-12 11:33:00,71.0,64.0,-100.00,West,270,5.0,-999.0,79,-99.99,,,-99.99,501.119995,,2013-08-12 16:33:00,
2013-08-12 11:43:00,71.0,64.0,-100.00,West,270,5.0,-999.0,79,-99.99,,,-99.99,501.119995,,2013-08-12 16:43:00,
2013-08-12 11:53:00,71.0,64.0,-100.00,West,270,5.0,-999.0,79,-99.99,,,-99.99,501.119995,,2013-08-12 16:53:00,
2013-08-12 12:00:00,69.0,64.0,-100.00,West,270,7.0,-999.0,85,-99.99,,,-99.99,302.760010,,2013-08-12 17:00:00,
2013-08-12 12:32:00,69.0,64.0,-100.00,West,270,7.0,-999.0,85,-99.99,,,-99.99,302.760010,,2013-08-12 17:32:00,
2013-08-12 12:43:00,69.0,64.0,-100.00,West,270,7.0,-999.0,85,-99.99,,,-99.99,302.760010,,2013-08-12 17:43:00,
2013-08-12 12:52:00,69.0,64.0,-100.00,West,270,7.0,-999.0,85,-99.99,,,-99.99,302.760010,,2013-08-12 17:52:00,
2013-08-12 13:00:00,68.0,64.0,-100.00,West,270,7.0,-999.0,87,-99.99,,,-99.99,349.160004,,2013-08-12 18:00:00,
2013-08-12 13:32:00,68.0,64.0,-100.00,West,270,7.0,-999.0,87,-99.99,,,-99.99,349.160004,,2013-08-12 18:32:00,
2013-08-12 13:43:00,68.0,64.0,-100.00,West,270,7.0,-999.0,87,-99.99,,,-99.99,349.160004,,2013-08-12 18:43:00,
2013-08-12 13:52:00,68.0,64.0,-100.00,West,270,7.0,-999.0,87,-99.99,,,-99.99,349.160004,,2013-08-12 18:52:00,
2013-08-12 14:00:00,69.0,64.0,-100.00,West,270,6.0,-999.0,84,-99.99,,,-99.99,299.279999,,2013-08-12 19:00:00,
2013-08-12 14:43:00,69.0,64.0,-100.00,West,270,6.0,-999.0,84,-99.99,,,-99.99,299.279999,,2013-08-12 19:43:00,
2013-08-12 14:52:00,69.0,64.0,-100.00,West,270,6.0,-999.0,84,-99.99,,,-99.99,299.279999,,2013-08-12 19:52:00,
2013-08-12 15:00:00,73.0,62.0,-100.00,West,270,6.0,-999.0,67,-99.99,,,-99.99,684.400024,,2013-08-12 20:00:00,
2013-08-12 15:32:00,73.0,62.0,-100.00,West,270,6.0,-999.0,67,-99.99,,,-99.99,684.400024,,2013-08-12 20:32:00,
2013-08-12 15:42:00,73.0,62.0,-100.00,West,270,6.0,-999.0,67,-99.99,,,-99.99,684.400024,,2013-08-12 20:42:00,
2013-08-12 15:52:00,73.0,62.0,-100.00,West,270,6.0,-999.0,67,-99.99,,,-99.99,684.400024,,2013-08-12 20:52:00,
2013-08-12 16:00:00,74.0,60.0,-100.00,West,270,7.0,-999.0,60,-99.99,,,-99.99,625.239990,,2013-08-12 21:00:00,
2013-08-12 16:43:00,74.0,60.0,-100.00,West,270,7.0,-999.0,60,-99.99,,,-99.99,625.239990,,2013-08-12 21:43:00,
2013-08-12 16:52:00,74.0,60.0,-100.00,West,270,7.0,-999.0,60,-99.99,,,-99.99,625.239990,,2013-08-12 21:52:00,
2013-08-12 17:00:00,62.0,60.0,-100.00,NNE,22,5.0,-999.0,91,0.06,,,-99.99,63.799999,,2013-08-12 22:00:00,
2013-08-12 17:43:00,62.0,60.0,-100.00,NNE,22,5.0,-999.0,91,0.06,,,-99.99,63.799999,,2013-08-12 22:43:00,
2013-08-12 17:53:00,62.0,60.0,-100.00,NNE,22,5.0,-999.0,91,0.06,,,-99.99,63.799999,,2013-08-12 22:53:00,
2013-08-12 18:00:00,63.0,60.0,-100.00,NNE,22,6.0,-999.0,91,-99.99,,,-99.99,203.000000,,2013-08-12 23:00:00,
2013-08-12 18:43:00,63.0,60.0,-100.00,NNE,22,6.0,-999.0,91,-99.99,,,-99.99,203.000000,,2013-08-12 23:43:00,
2013-08-12 18:54:00,63.0,60.0,-100.00,NNE,22,6.0,-999.0,91,-99.99,,,-99.99,203.000000,,2013-08-12 23:54:00,
2013-08-12 19:00:00,60.0,56.0,-100.00,North,0,9.0,-999.0,85,-99.99,,,-99.99,91.639999,,2013-08-13 00:00:00,
2013-08-12 19:45:00,60.0,56.0,-100.00,North,0,9.0,-999.0,85,-99.99,,,-99.99,91.639999,,2013-08-13 00:45:00,
2013-08-12 19:54:00,60.0,56.0,-100.00,North,0,9.0,-999.0,85,-99.99,,,-99.99,91.639999,,2013-08-13 00:54:00,
2013-08-12 20:00:00,57.0,51.0,-100.00,North,0,10.0,-999.0,79,-99.99,,,-99.99,29.000000,,2013-08-13 01:00:00,
2013-08-12 20:42:00,57.0,51.0,-100.00,North,0,10.0,-999.0,79,-99.99,,,-99.99,29.000000,,2013-08-13 01:42:00,
2013-08-12 20:55:00,57.0,51.0,-100.00,North,0,10.0,-999.0,79,-99.99,,,-99.99,29.000000,,2013-08-13 01:55:00,
2013-08-12 21:00:00,56.0,47.0,-100.00,North,0,9.0,-999.0,73,-99.99,,,-99.99,1.160000,,2013-08-13 02:00:00,
2013-08-12 21:43:00,56.0,47.0,-100.00,North,0,9.0,-999.0,73,-99.99,,,-99.99,1.160000,,2013-08-13 02:43:00,
2013-08-12 21:52:00,56.0,47.0,-100.00,North,0,9.0,-999.0,73,-99.99,,,-99.99,1.160000,,2013-08-13 02:52:00,
2013-08-12 22:00:00,55.0,46.0,-100.00,North,0,8.0,-999.0,73,-99.99,,,-99.99,0.000000,,2013-08-13 03:00:00,
2013-08-12 22:43:00,55.0,46.0,-100.00,North,0,8.0,-999.0,73,-99.99,,,-99.99,0.000000,,2013-08-13 03:43:00,
2013-08-12 22:54:00,55.0,46.0,-100.00,North,0,8.0,-999.0,73,-99.99,,,-99.99,0.000000,,2013-08-13 03:54:00,
2013-08-12 23:00:00,53.0,46.0,-100.00,North,0,7.0,-999.0,77,-99.99,,,-99.99,0.000000,,2013-08-13 04:00:00,
2013-08-12 23:42:00,53.0,46.0,-100.00,North,0,7.0,-999.0,77,-99.99,,,-99.99,0.000000,,2013-08-13 04:42:00,
2013-08-12 23:53:00,53.0,46.0,-100.00,North,0,7.0,-999.0,77,-99.99,,,-99.99,0.000000,,2013-08-13 04:53:00,